DECAYED

ELECTRON KICK STAGE R/B, 67616 (Decayed)

Orbit data source: Space-Track

ELECTRON KICK STAGE R/B, 67616 was space debris in LEO originally from a launch on Fri, 30 Jan 2026 UTC launched from the Rocket Lab Launch Complex (RLLC). Debris objects in space refer to the collection of defunct objects orbiting the Earth. Examples of debris include non-operational satellites, rocket bodies, and fragments generated from explosions, collisions, or faulty payload assembly.

Not visible in the next 10 days
Identifier
67616, 2026-019C
Orbit
Decayed
Country
Flag of USUS
Related business
Manufacturer
Rocket Lab
Mission
Decayed spacecraft
Bus & Motor
KICK STAGE, CURIE
Mass
~50 kg wet, ~50 kg dry
Launch date (UTC)
2026-01-30 (5 months ago)
Launch vehicle
Unknown
Launch site
Rocket Lab Launch Complex (RLLC)
Object type
Payload
Rocket body
Debris
Shape & HBR
Trunc Cone, 0.6 m
Radar Cross Section
0.760 m², Medium (>0.1 m² and < 1m²)

Expand to show TLE details & history
Last TLE update: 3 months ago

TLE from 3 months ago
0 ELECTRON KICK STAGE R/B
1 67616U 26019C   26077.39138110  .11426859  25342-5  61050-3 0  9994
2 67616  97.3749 205.5675 0019981  71.8992 288.4482 16.40167200  7450
Epoch: 2026-03-18T09:23Z
TLE epoch observation values (Epoch: 2026-03-18T09:23:35.327Z)
Latitude
0.00003°
Longitude
-111.28552°
Altitude
164.495 km
Speed
7.81 km/s
True Right ascension
13h 42m 16s
True Declination
0° 00' 00"
Sunlit
Object was in full shadow at epoch
Visualization orbit readout
Latitude
Unknown
Longitude
Unknown
Altitude
Unknown
Speed
Unknown
Apparent Right ascension
Unknown
Apparent Declination
Unknown
Sunlit
N/A
Visualization observer readout
Local Sidereal Time
07:22:55
Azimuth
Unknown
Elevation
Unknown
Doppler factor
Unknown
Orbital elements
Apogee altitude
175.232 km
Perigee altitude
149.096 km
Semi-major axis
6,540.301 km
Eccentricity
0.002
Inclination
97.3749°
RAAN
205.5675°
Arg. of periapsis
71.8992°
True anomaly
288.23083°
Mean anomaly
288.4482°
Eccentric anomaly
288.33953°
Mean motion
4.10343 °/min
Orbital period
87.73 mins
BSTAR
0.0006105
Loading maneuver chart data...
Computing Atmospheric mass density...
Loading historical data...
Loading historical data...
Loading historical data...
Loading historical data...
Loading historical data...
Loading historical data...
Loading historical data...
Other satellites on launch #19 in the year 2026 (2026-01-30 UTC)

Documentation

Showing up to 5 results
|